Location: Newark
(42.9277°N, 71.8621°W)
Time: 18:21:43
(UTC+00:00)

Vanguard 2 - Visible Passes

Search period start: 06 June 2020 00:00
Search period end: 16 June 2020 00:00
Orbit: 552 x 2938 km, 32.9° (Epoch: 05 June)

Date Brightness Start Highest point End Pass type
(mag) Time Alt. Az. Time Alt. Az. Time Alt. Az.
06 Jun 9.4 01:35:59 10° W 01:46:19 39° SSW 01:51:27 17° SE visible
06 Jun 10.1 03:49:59 10° WSW 03:52:51 14° SW 03:52:51 14° SW visible
07 Jun 9.4 01:54:05 10° W 02:03:51 34° SSW 02:08:13 19° SSE visible
08 Jun 9.6 02:12:20 10° W 02:21:14 28° SSW 02:24:58 20° S visible
09 Jun 9.8 02:30:47 10° W 02:38:32 23° SW 02:41:44 18° S visible
10 Jun 10.1 02:49:40 10° WSW 02:55:43 17° SW 02:58:30 14° SSW visible
11 Jun 10.1 00:53:14 10° W 01:05:30 38° SSW 01:13:28 10° SE visible
11 Jun 10.4 03:09:40 10° WSW 03:12:48 12° SW 03:15:16 10° SSW visible
12 Jun 10.2 01:11:31 10° W 01:22:53 32° SSW 01:30:33 10° SSE visible
13 Jun 10.3 01:30:00 10° W 01:40:09 26° SW 01:47:19 10° SSE visible
14 Jun 10.5 01:48:51 10° W 01:57:17 20° SW 02:03:39 10° S visible
15 Jun 10.7 02:08:30 10° WSW 02:14:20 14° SW 02:19:09 10° SSW visible
